Time_in_sec,gx,gy,gz
1312471887.63575578,0.04270638,0.03507663,-0.99847173
1312471887.68734384,0.04263824,0.03518303,-0.99847090
1312471887.73529816,0.04268078,0.03505495,-0.99847359
1312471887.78729296,0.04254586,0.03484084,-0.99848684
1312471887.83533525,0.04223980,0.03517842,-0.99848800
1312471887.88435006,0.04228322,0.03518527,-0.99848592
1312471887.93533397,0.04209489,0.03520931,-0.99849303
1312471887.98445296,0.04198954,0.03529327,-0.99849450
1312471888.03744221,0.04184891,0.03547519,-0.99849396
1312471888.08444595,0.04173552,0.03633725,-0.99846770
1312471888.13535666,0.04174252,0.03645960,-0.99846295
1312471888.18443704,0.04158610,0.03651032,-0.99846762
1312471888.23528886,0.04175979,0.03666555,-0.99845468
1312471888.28442955,0.04178579,0.03651733,-0.99845903
1312471888.33559084,0.04187577,0.03732146,-0.99842552
1312471888.38443613,0.04186206,0.03756611,-0.99841692
1312471888.43661356,0.04175022,0.03765760,-0.99841816
1312471888.48442578,0.04165860,0.03727730,-0.99843626
1312471888.53541636,0.04186864,0.03742890,-0.99842180
1312471888.58443642,0.04216591,0.03807718,-0.99838478
1312471888.63658953,0.04240650,0.03818882,-0.99837032
1312471888.68488526,0.04255107,0.03840024,-0.99835606
1312471888.73636079,0.04260223,0.03837175,-0.99835498
1312471888.78442621,0.04259646,0.03840152,-0.99835408
1312471888.83662701,0.04281122,0.03888492,-0.99832618
1312471888.88442945,0.04290284,0.03891659,-0.99832101
1312471888.93673420,0.04315007,0.03896046,-0.99830865
1312471888.98872137,0.04320624,0.03912547,-0.99829976
1312471889.04342222,0.04321108,0.03909715,-0.99830066
1312471889.08442307,0.04289113,0.03901779,-0.99831757
1312471889.13628650,0.04279276,0.03884166,-0.99832866
1312471889.18443465,0.04302525,0.03885072,-0.99831831
1312471889.23530507,0.04287242,0.03881006,-0.99832647
1312471889.28443789,0.04317106,0.03877283,-0.99831504
1312471889.33660245,0.04315670,0.03879199,-0.99831492
1312471889.38443279,0.04313297,0.03910656,-0.99830367
1312471889.43628693,0.04325298,0.03885083,-0.99830847
1312471889.48443556,0.04288652,0.03879675,-0.99832638
1312471889.53635478,0.04298901,0.03862133,-0.99832877
1312471889.58740950,0.04311630,0.03888248,-0.99831315
1312471889.64334702,0.04305402,0.03873214,-0.99832168
1312471889.69244194,0.04303068,0.03859505,-0.99832799
1312471889.74329591,0.04268491,0.03875340,-0.99833670
1312471889.78443885,0.04261937,0.03874878,-0.99833968
1312471889.84329271,0.04143312,0.03889261,-0.99838403
1312471889.88444567,0.04149719,0.03896997,-0.99837835
1312471889.93897963,0.04144713,0.03867751,-0.99839180
1312471889.98729992,0.04165340,0.03860620,-0.99838598
1312471890.04438734,0.04163926,0.03847380,-0.99839168
1312471890.08444881,0.04088203,0.03807788,-0.99843815
1312471890.13538384,0.04078677,0.03799794,-0.99844509
1312471890.18336320,0.04075873,0.03773141,-0.99845634
1312471890.23631024,0.04077108,0.03786486,-0.99845079
1312471890.29242110,0.04075140,0.03764247,-0.99846000
1312471890.33540583,0.04001203,0.03808220,-0.99847323
1312471890.39542627,0.04009235,0.03809292,-0.99846960
1312471890.43749571,0.04041061,0.03785333,-0.99846588
1312471890.49232244,0.04036944,0.03778469,-0.99847014
1312471890.54332328,0.04009247,0.03770604,-0.99848428
1312471890.58440185,0.03979662,0.03769130,-0.99849667
1312471890.64332676,0.03988781,0.03785458,-0.99848685
1312471890.68443251,0.03971722,0.03807592,-0.99848524
1312471890.73631120,0.03964704,0.03809112,-0.99848745
1312471890.79317951,0.03965732,0.03806532,-0.99848802
1312471890.83469844,0.03946570,0.03764079,-0.99851171
1312471890.89543962,0.03932465,0.03781864,-0.99851055
1312471890.93606997,0.03920865,0.03800240,-0.99850814
1312471890.98843622,0.03924642,0.03809744,-0.99850303
1312471891.03664851,0.03921284,0.03794531,-0.99851014
1312471891.09613514,0.03964836,0.03765800,-0.99850382
1312471891.13676190,0.03952618,0.03729546,-0.99852227
1312471891.18431020,0.03945820,0.03735670,-0.99852267
1312471891.23636985,0.03964430,0.03728044,-0.99851815
1312471891.28741550,0.03978379,0.03740993,-0.99850776
1312471891.34370899,0.04016855,0.03675982,-0.99851650
1312471891.38443947,0.04004349,0.03674154,-0.99852220
1312471891.44413233,0.03991293,0.03677969,-0.99852602
1312471891.48432064,0.04004172,0.03691510,-0.99851587
1312471891.54432678,0.03993899,0.03681756,-0.99852358
1312471891.58442998,0.04032927,0.03646234,-0.99852093
1312471891.64433169,0.04048379,0.03632332,-0.99851974
1312471891.68434787,0.04038377,0.03653062,-0.99851623
1312471891.74332190,0.04043030,0.03651705,-0.99851484
1312471891.78435445,0.04025202,0.03665774,-0.99851689
1312471891.84329796,0.04109032,0.03568853,-0.99851786
1312471891.88443542,0.04147646,0.03574295,-0.99849995
1312471891.93532991,0.04121886,0.03589251,-0.99850525
1312471891.99544811,0.04101340,0.03577579,-0.99851790
1312471892.04443812,0.04122323,0.03580316,-0.99850828
1312471892.09636426,0.04145174,0.03559016,-0.99850643
1312471892.14429522,0.04116377,0.03548050,-0.99852225
1312471892.18443203,0.04106343,0.03543619,-0.99852795
1312471892.24329901,0.04112786,0.03505117,-0.99853889
1312471892.28444481,0.04096869,0.03540087,-0.99853310
1312471892.33541036,0.04086059,0.03521416,-0.99854413
1312471892.38436508,0.04117183,0.03518629,-0.99853233
1312471892.44443321,0.04115655,0.03528502,-0.99852947
1312471892.49646807,0.04111702,0.03549260,-0.99852374
1312471892.54329610,0.04114664,0.03532869,-0.99852834
1312471892.58741307,0.04105802,0.03570866,-0.99851847
1312471892.64346027,0.04104052,0.03561435,-0.99852256
1312471892.69628477,0.04113638,0.03556327,-0.99852043
1312471892.74341369,0.04086810,0.03540942,-0.99853692
1312471892.79535723,0.04078226,0.03539480,-0.99854094
1312471892.84332991,0.04087907,0.03537365,-0.99853773
1312471892.88348532,0.04111345,0.03517479,-0.99853514
1312471892.94445014,0.04136578,0.03525518,-0.99852188
1312471892.99245572,0.04092605,0.03512257,-0.99854467
1312471893.04341650,0.04083722,0.03527926,-0.99854279
1312471893.09242034,0.04049539,0.03521417,-0.99855900
1312471893.14342523,0.04058145,0.03518962,-0.99855638
1312471893.19241905,0.04060781,0.03528172,-0.99855205
1312471893.24433851,0.04046719,0.03507995,-0.99856487
1312471893.29246569,0.04044019,0.03511140,-0.99856486
1312471893.34333277,0.04065389,0.03532590,-0.99854862
1312471893.39241838,0.04059008,0.03556164,-0.99854285
1312471893.44431472,0.04060800,0.03551704,-0.99854370
1312471893.49232841,0.04064044,0.03519509,-0.99855378
1312471893.54333830,0.04059349,0.03520796,-0.99855524
1312471893.59238791,0.04063888,0.03552139,-0.99854229
1312471893.64328790,0.04051524,0.03564934,-0.99854276
1312471893.69633913,0.04046833,0.03538772,-0.99855397
1312471893.74433398,0.04038481,0.03536676,-0.99855809
1312471893.79635382,0.04027632,0.03550257,-0.99855765
1312471893.84437490,0.04029460,0.03517586,-0.99856848
1312471893.89533544,0.04014698,0.03534424,-0.99856848
1312471893.94733357,0.04019021,0.03539008,-0.99856512
1312471893.99328542,0.04012329,0.03537927,-0.99856819
1312471894.04329252,0.04024568,0.03552991,-0.99855792
1312471894.09643459,0.04000138,0.03527289,-0.99857684
1312471894.14329791,0.03989791,0.03551693,-0.99857233
1312471894.19642401,0.03996475,0.03547761,-0.99857106
1312471894.24421930,0.03998254,0.03545303,-0.99857122
1312471894.29633188,0.03999852,0.03549315,-0.99856915
1312471894.34328389,0.03976091,0.03553939,-0.99857700
1312471894.39643717,0.04002636,0.03564812,-0.99856252
1312471894.44370103,0.03999129,0.03551447,-0.99856869
1312471894.49643064,0.04021356,0.03561290,-0.99855625
1312471894.54435897,0.04050632,0.03556053,-0.99854629
1312471894.59642410,0.04006746,0.03631699,-0.99853677
1312471894.64329171,0.04009625,0.03643207,-0.99853142
1312471894.69629264,0.04013955,0.03620453,-0.99853796
1312471894.74444056,0.04015408,0.03615060,-0.99853933
1312471894.79532886,0.03999678,0.03625476,-0.99854186
1312471894.84436107,0.03937743,0.03647724,-0.99855838
1312471894.89531612,0.03925312,0.03647093,-0.99856350
1312471894.94443393,0.03924883,0.03662705,-0.99855795
1312471894.99562287,0.03921570,0.03647254,-0.99856491
1312471895.04444265,0.03942906,0.03661429,-0.99855132
1312471895.09596920,0.03945635,0.03687722,-0.99854057
1312471895.14341664,0.03932563,0.03684162,-0.99854704
1312471895.19632721,0.03961922,0.03686975,-0.99853440
1312471895.24442101,0.03942778,0.03660124,-0.99855185
1312471895.29643559,0.03931604,0.03637426,-0.99856455
1312471895.34431958,0.03922871,0.03648099,-0.99856409
1312471895.39642382,0.03923612,0.03652541,-0.99856218
1312471895.44330311,0.03924235,0.03652611,-0.99856191
1312471895.49632525,0.03902994,0.03662165,-0.99856673
1312471895.54329371,0.03904695,0.03657334,-0.99856784
1312471895.59646130,0.03927152,0.03626196,-0.99857039
1312471895.64330482,0.03957711,0.03624396,-0.99855898
1312471895.69645286,0.03967463,0.03628072,-0.99855377
1312471895.74329281,0.03981507,0.03615749,-0.99855265
1312471895.79541111,0.03985060,0.03621793,-0.99854904
1312471895.84338546,0.04064963,0.03638626,-0.99851071
1312471895.89631963,0.04083527,0.03632884,-0.99850523
1312471895.94342947,0.04075577,0.03649240,-0.99850251
1312471895.99247503,0.04070835,0.03658639,-0.99850101
1312471896.04428649,0.04058152,0.03676362,-0.99849966
1312471896.09542489,0.04079124,0.03668510,-0.99849400
1312471896.14329195,0.04093633,0.03654505,-0.99849320
1312471896.19642806,0.04091060,0.03656780,-0.99849342
1312471896.24364591,0.04075439,0.03657115,-0.99849969
1312471896.29631257,0.04058250,0.03655143,-0.99850741
1312471896.34343052,0.04083530,0.03621525,-0.99850936
1312471896.39635539,0.04071160,0.03630230,-0.99851125
1312471896.44330120,0.04076249,0.03626436,-0.99851055
1312471896.49635530,0.04046331,0.03619010,-0.99852541
1312471896.54329705,0.04028335,0.03622214,-0.99853153
1312471896.59634304,0.04007850,0.03622316,-0.99853973
1312471896.64336085,0.03988622,0.03625853,-0.99854615
1312471896.69532156,0.03973415,0.03632966,-0.99854962
1312471896.74328017,0.03958406,0.03633521,-0.99855538
1312471896.79634380,0.03955665,0.03659944,-0.99854682
1312471896.84329200,0.03979728,0.03637191,-0.99854557
1312471896.89532590,0.03987003,0.03649550,-0.99853816
1312471896.94332480,0.03990956,0.03640190,-0.99854000
1312471896.99634457,0.03984731,0.03624746,-0.99854810
1312471897.04506683,0.03998436,0.03624061,-0.99854287
1312471897.09530902,0.04000950,0.03595287,-0.99855227
1312471897.14341521,0.04003158,0.03586053,-0.99855470
1312471897.19642687,0.04016269,0.03589367,-0.99854825
1312471897.24442577,0.04018531,0.03575838,-0.99855219
1312471897.29642653,0.04024597,0.03578136,-0.99854893
1312471897.34442067,0.04049460,0.03570562,-0.99854158
1312471897.39643383,0.04049214,0.03564189,-0.99854396
1312471897.44330907,0.04078339,0.03549781,-0.99853724
1312471897.49632359,0.04081219,0.03545684,-0.99853752
1312471897.54332590,0.04102189,0.03528094,-0.99853516
1312471897.59642506,0.04085596,0.03503130,-0.99855075
1312471897.64330173,0.04089560,0.03486928,-0.99855480
1312471897.69629836,0.04113028,0.03485288,-0.99854573
1312471897.74341488,0.04112676,0.03498271,-0.99854134
1312471897.79642797,0.04100610,0.03488226,-0.99854981
1312471897.84441853,0.04104986,0.03454034,-0.99855990
1312471897.89631486,0.04138003,0.03471671,-0.99854016
1312471897.94341063,0.04128393,0.03487898,-0.99853848
1312471897.99643850,0.04135865,0.03490677,-0.99853442
1312471898.04335284,0.04142027,0.03475678,-0.99853709
1312471898.09539437,0.04141639,0.03460285,-0.99854260
1312471898.14328599,0.04126948,0.03460044,-0.99854877
1312471898.19644713,0.04124648,0.03457732,-0.99855052
1312471898.24328423,0.04129043,0.03460410,-0.99854777
1312471898.29629660,0.04128453,0.03450094,-0.99855159
1312471898.34444451,0.04126918,0.03437964,-0.99855641
1312471898.39617395,0.04109022,0.03466233,-0.99855401
1312471898.44433904,0.04126363,0.03465890,-0.99854698
1312471898.49643898,0.04100436,0.03457377,-0.99856061
1312471898.54329109,0.04089393,0.03457735,-0.99856502
1312471898.59644055,0.04024492,0.03493284,-0.99857901
1312471898.64329720,0.04000263,0.03482045,-0.99859267
1312471898.69633245,0.04004708,0.03486712,-0.99858926
1312471898.74334264,0.03975139,0.03499668,-0.99859654
1312471898.79541159,0.03959685,0.03511925,-0.99859838
1312471898.84329176,0.03944188,0.03508868,-0.99860559
1312471898.89643884,0.03926071,0.03501017,-0.99861548
1312471898.94444752,0.03937780,0.03516943,-0.99860528
1312471898.99542856,0.03929126,0.03545629,-0.99859854
1312471899.04330015,0.03925772,0.03527445,-0.99860630
1312471899.09631443,0.03904661,0.03601544,-0.99858813
1312471899.14336061,0.03904977,0.03611332,-0.99858447
1312471899.19541860,0.03897196,0.03600404,-0.99859146
1312471899.24337673,0.03881693,0.03620914,-0.99859008
1312471899.29589009,0.03879045,0.03615450,-0.99859309
1312471899.34442401,0.03854035,0.03586929,-0.99861306
1312471899.39643168,0.03865834,0.03553482,-0.99862045
1312471899.44355226,0.03867711,0.03554343,-0.99861942
1312471899.49629879,0.03851286,0.03585601,-0.99861459
1312471899.54333687,0.03862982,0.03556388,-0.99862052
1312471899.59634638,0.03934037,0.03525011,-0.99860391
1312471899.64329791,0.03932064,0.03521923,-0.99860577
1312471899.69634509,0.03918599,0.03542635,-0.99860374
1312471899.74433875,0.03930924,0.03526265,-0.99860469
1312471899.79635048,0.03945133,0.03540165,-0.99859417
1312471899.84335136,0.03992326,0.03507859,-0.99858681
1312471899.89630127,0.03973784,0.03492495,-0.99859960
1312471899.94430184,0.03989508,0.03513021,-0.99858613
1312471899.99642444,0.03978107,0.03514098,-0.99859030
1312471900.04336643,0.03990884,0.03507723,-0.99858744
1312471900.09643722,0.04021041,0.03518978,-0.99857138
1312471900.14443779,0.04032166,0.03524949,-0.99856479
1312471900.19642615,0.04023471,0.03522117,-0.99856930
1312471900.24331903,0.04005954,0.03514759,-0.99857893
1312471900.29630852,0.04002678,0.03516286,-0.99857971
1312471900.34341097,0.04044945,0.03510623,-0.99856467
1312471900.39635634,0.04049753,0.03526880,-0.99855699
1312471900.44431067,0.04057334,0.03553111,-0.99854461
1312471900.49642587,0.04049216,0.03557762,-0.99854625
1312471900.54442549,0.04045342,0.03550950,-0.99855025
1312471900.59642529,0.04135977,0.03539541,-0.99851717
1312471900.64329839,0.04142422,0.03544824,-0.99851262
1312471900.69630742,0.04144779,0.03534354,-0.99851536
1312471900.74331999,0.04142273,0.03542142,-0.99851364
1312471900.79643464,0.04112852,0.03524982,-0.99853187
1312471900.84328723,0.04172079,0.03519506,-0.99850923
1312471900.89532423,0.04141234,0.03548720,-0.99851173
1312471900.94329453,0.04132102,0.03540286,-0.99851851
1312471900.99643874,0.04118797,0.03529501,-0.99852782
1312471901.04742026,0.04120046,0.03572030,-0.99851218
1312471901.09530377,0.04101947,0.03642305,-0.99849425
1312471901.14333940,0.04085452,0.03641981,-0.99850113
1312471901.19642591,0.04090297,0.03644449,-0.99849825
1312471901.24372339,0.04098230,0.03656407,-0.99849062
1312471901.29643750,0.04108259,0.03681214,-0.99847738
1312471901.34335303,0.04006088,0.03693065,-0.99851452
1312471901.39643598,0.04008574,0.03679709,-0.99851846
1312471901.44331717,0.04016178,0.03697206,-0.99850894
1312471901.49630380,0.03979957,0.03711899,-0.99851799
1312471901.54332042,0.03986034,0.03715536,-0.99851421
1312471901.59637356,0.03953870,0.03740518,-0.99851767
1312471901.64335370,0.03950603,0.03762183,-0.99851083
1312471901.69532967,0.03970525,0.03767940,-0.99850075
1312471901.74434543,0.03963873,0.03775299,-0.99850062
1312471901.79541636,0.03977146,0.03783374,-0.99849228
1312471901.84386706,0.03984727,0.03758525,-0.99849865
1312471901.89561367,0.03997546,0.03774840,-0.99848737
1312471901.94336081,0.03986415,0.03764913,-0.99849556
1312471901.99529767,0.03978611,0.03765015,-0.99849864
1312471902.04438901,0.03973517,0.03757392,-0.99850354
1312471902.09529805,0.04048333,0.03746669,-0.99847751
1312471902.14342713,0.04055366,0.03745986,-0.99847492
1312471902.19543886,0.04049308,0.03734369,-0.99848173
1312471902.24343610,0.04046567,0.03758080,-0.99847394
1312471902.29529929,0.04053881,0.03749875,-0.99847406
1312471902.34331441,0.04092396,0.03656638,-0.99849293
1312471902.39538646,0.04103972,0.03655056,-0.99848876
1312471902.44328761,0.04108221,0.03671518,-0.99848097
1312471902.49635482,0.04127264,0.03667301,-0.99847467
1312471902.54438114,0.04107915,0.03667920,-0.99848242
1312471902.59631157,0.04117623,0.03708343,-0.99846349
1312471902.64328504,0.04089822,0.03723916,-0.99846912
1312471902.69636559,0.04090951,0.03721301,-0.99846963
1312471902.74330807,0.04066159,0.03709821,-0.99848403
1312471902.79644012,0.04069707,0.03710695,-0.99848226
1312471902.84447598,0.04127476,0.03732234,-0.99845052
1312471902.89645934,0.04102815,0.03724396,-0.99846361
1312471902.94332910,0.04097653,0.03706792,-0.99847228
1312471902.99643016,0.04099284,0.03742258,-0.99845838
1312471903.04530025,0.04097815,0.03725980,-0.99846507
1312471903.09634161,0.04127970,0.03674872,-0.99847159
1312471903.14334726,0.04113812,0.03674928,-0.99847741
1312471903.19630218,0.04104455,0.03681242,-0.99847894
1312471903.24436855,0.04092345,0.03671507,-0.99848749
1312471903.29644322,0.04102168,0.03652257,-0.99849052
1312471903.34329653,0.04130068,0.03620287,-0.99849066
1312471903.39643264,0.04132551,0.03596345,-0.99849829
1312471903.44330096,0.04098581,0.03578987,-0.99851853
1312471903.49633169,0.04083801,0.03597277,-0.99851801
1312471903.54443073,0.04083922,0.03614192,-0.99851185
1312471903.59632230,0.03953903,0.03654192,-0.99854962
1312471903.64435244,0.03943941,0.03636898,-0.99855988
1312471903.69634914,0.03948378,0.03628992,-0.99856100
1312471903.74332380,0.03971742,0.03614438,-0.99855701
1312471903.79643250,0.03977346,0.03608921,-0.99855678
1312471903.84438610,0.03858313,0.03657699,-0.99858573
1312471903.89633965,0.03828648,0.03644209,-0.99860208
1312471903.94333696,0.03824477,0.03665162,-0.99859601
1312471903.99645352,0.03834871,0.03652621,-0.99859662
1312471904.04378295,0.03857369,0.03645740,-0.99859047
1312471904.09637284,0.03830528,0.03669791,-0.99859199
1312471904.14416933,0.03843936,0.03681541,-0.99858252
1312471904.19651222,0.03837410,0.03701887,-0.99857750
1312471904.24329114,0.03833795,0.03687495,-0.99858422
1312471904.29636312,0.03826676,0.03718102,-0.99857560
1312471904.34335208,0.03763935,0.03766124,-0.99858145
1312471904.39644384,0.03762564,0.03766619,-0.99858178
1312471904.44334531,0.03756547,0.03784941,-0.99857712
1312471904.49641514,0.03750845,0.03783035,-0.99857998
1312471904.54329753,0.03769988,0.03768063,-0.99857843
1312471904.59547877,0.03865509,0.03740140,-0.99855241
1312471904.64342570,0.03896832,0.03744589,-0.99853857
1312471904.69632506,0.03924121,0.03762504,-0.99852115
1312471904.74334431,0.03937242,0.03770512,-0.99851296
1312471904.79605508,0.03905223,0.03786001,-0.99851968
1312471904.84331560,0.03948197,0.03744010,-0.99851861
1312471904.89572716,0.03934556,0.03754478,-0.99852006
1312471904.94329762,0.03929566,0.03761571,-0.99851936
1312471904.99597239,0.03925025,0.03741402,-0.99852872
1312471905.04443812,0.03925872,0.03754285,-0.99852355
1312471905.09251785,0.04048773,0.03623666,-0.99852273
1312471905.14352822,0.04040507,0.03632853,-0.99852274
1312471905.19650745,0.04045714,0.03633989,-0.99852022
1312471905.24336219,0.04036740,0.03612719,-0.99853157
1312471905.29532313,0.04040041,0.03632732,-0.99852298
1312471905.34439325,0.04052337,0.03630905,-0.99851866
1312471905.39639902,0.04049277,0.03634732,-0.99851851
1312471905.44439864,0.04047392,0.03612226,-0.99852744
1312471905.49644732,0.04068471,0.03631213,-0.99851198
1312471905.54333663,0.04063314,0.03632121,-0.99851375
1312471905.59540343,0.04079038,0.03718255,-0.99847564
1312471905.64431286,0.04077954,0.03725610,-0.99847334
1312471905.69244313,0.04079860,0.03729142,-0.99847124
1312471905.74332714,0.04059586,0.03714994,-0.99848478
1312471905.79643154,0.04066619,0.03697386,-0.99848846
1312471905.84329152,0.04088006,0.03652907,-0.99849609
1312471905.89532185,0.04088042,0.03641760,-0.99850015
1312471905.94333124,0.04084650,0.03648314,-0.99849915
1312471905.99632120,0.04116197,0.03632011,-0.99849213
1312471906.04326844,0.04103267,0.03635403,-0.99849622
1312471906.09533501,0.04075886,0.03608706,-0.99851712
1312471906.14443326,0.04086213,0.03599178,-0.99851634
1312471906.19705081,0.04083708,0.03586401,-0.99852196
1312471906.24328279,0.04068046,0.03599164,-0.99852376
1312471906.29631400,0.04078864,0.03597126,-0.99852008
1312471906.34332705,0.03948548,0.03672891,-0.99854488
1312471906.39529014,0.03956052,0.03667992,-0.99854371
